Weather in Vozdvizhenskoye

Russia / Yaroslavl Oblast     57°23′21″N   38°03′27″E
temp.,
°C
wind,
m/s
gust,
m/s
humid.,
%
clouds,
%
prec.,
mm/h
press.,
hPa
HPBL,
m
24 july, sat
sat2400:00+13nw3868100 0.0 1009219
03:00+10nw3582100 0.0 101092
06:00+11n268791 0.2 1011198
09:00+16nnw355540 0.2 10131140
12:00+18nnw3342100 0.1 10132060
15:00+18w134374 0.1 10151013
18:00+19wsw2442100 0.0 10151105
21:00+16wsw235091 0.0 101649
25 july, sun
sun2500:00+11ssw3569100 0.0 101880
03:00+12sw246566 0.0 101861
06:00+14sw256626 0.0 1019150
09:00+18w245184 0.0 1020515
12:00+22w343270 0.0 10202602
15:00+23wnw343149 0.0 10202546
18:00+22w453828 0.0 10201065
21:00+18nw224952 0.0 102135
26 july, mon
mon2600:00+17wsw2252100 0.0 102230
03:00+16sw235889 0.0 102345
06:00+15sw23686 0.0 102371
09:00+20sw345393 0.0 1023352
12:00+25wsw243832 0.0 10231773
15:00+23w1251100 0.0 1022171
18:00+25w244467 0.0 1021968
21:00+20sw355769 0.0 1022102
27 july, tue
tue2700:00+18w397014 0.0 1022229
03:00+17wsw2475100 0.0 102297
06:00+17wsw2473100 0.0 1023119
09:00+22wsw23566 0.0 1022461
12:00+27wsw33366 0.0 10212272
15:00+28w333256 0.0 10202439
18:00+27wnw443718 0.0 10191345
21:00+21sw355653 0.0 101984
28 july, wed
wed2800:00+17wsw34756 0.0 101955
03:00+15sw33805 0.0 101940
06:00+17sw25815 0.0 1018126
09:00+24sw455611 0.0 1017649
12:00+28wsw453912 0.0 10152277
15:00+28sw5537100 0.0 10132202
18:00+27ssw3642100 0.0 10121311
21:00+24wsw5846100 0.0 1011424